Change the Weather History Date:

Thursday, December 8, 2011

  Actual Average Record
Temperature  
Mean Temperature 38 °F -  
Max Temperature 43 °F 40 °F 62 °F (1980)
Min Temperature 33 °F 23 °F -7 °F (1964)
Degree Days  
Heating Degree Days 27    
Moisture  
Dew Point 30 °F    
Average Humidity 75    
Maximum Humidity 96    
Minimum Humidity 49    
Precipitation  
Precipitation 0.46 in - - ()
Sea Level Pressure  
Sea Level Pressure 29.78 in    
Wind  
Wind Speed 14 mph (WNW)    
Max Wind Speed 24 mph    
Max Gust Speed 37 mph    
Visibility 8 miles    
Events Rain    
Averages and records for this station are not official NWS values.
T = Trace of Precipitation, MM = Missing Value Source: NWS Daily Summary

Daily Weather History Graph

Daily Weather History Graph

Search for Another Location

Airport or City:

Trip Planner

Search our weather history database for the weather conditions in past years. The results will help you decide how hot, cold, wet, or windy it might be!

Date:

Astronomy

Dec. 08, 2011 Rise Set
Actual Time 7:01 AM EST 4:12 PM EST
Civil Twilight 6:29 AM EST 4:43 PM EST
Nautical Twilight 5:54 AM EST 5:19 PM EST
Astronomical Twilight 5:20 AM EST 5:53 PM EST
Moon 2:49 PM EST (12/8) 5:10 AM EST (12/8)
Length of Visible Light 10h 13m
Length of Day
9h 10m
Waxing Gibbous, 97% of the Moon is Illuminated
Dec 8
Waxing Gibbous
Dec 10
Full
Dec 17
Last Quarter
Dec 24
New
Jan 1
First Quarter

Hourly Weather History & Observations

Time (EST) Temp. Windchill Dew Point Humidity Pressure Visibility Wind Dir Wind Speed Gust Speed Precip Events Conditions
12:56 AM 41.0 °F 34.7 °F 39.9 °F 96% 29.43 in 8.0 mi North 10.4 mph - 0.15 in Rain Light Rain
1:51 AM 41.0 °F 34.3 °F 39.2 °F 93% 29.37 in 2.5 mi NNW 11.5 mph - 0.13 in Rain Heavy Rain
1:56 AM 41.0 °F 34.7 °F 39.2 °F 93% 29.36 in 4.0 mi NNW 10.4 mph - N/A Rain Rain
2:07 AM 41.0 °F 34.3 °F 39.2 °F 93% 29.37 in 3.0 mi NNW 11.5 mph 19.6 mph 0.04 in Rain Heavy Rain
2:23 AM 41.0 °F 34.7 °F 39.2 °F 93% 29.33 in 4.0 mi NNW 10.4 mph 18.4 mph 0.08 in Rain Rain
2:56 AM 41.0 °F 33.5 °F 39.2 °F 93% 29.30 in 4.0 mi NNW 13.8 mph 21.9 mph N/A Rain Rain
3:14 AM 41.0 °F 33.1 °F 39.2 °F 93% 29.35 in 5.0 mi NW 15.0 mph 20.7 mph 0.04 in Rain Rain
3:56 AM 39.9 °F 29.7 °F 37.9 °F 93% 29.42 in 5.0 mi NW 23.0 mph 33.4 mph 0.17 in Rain Rain
4:14 AM 39.2 °F 29.0 °F 37.4 °F 93% 29.43 in 7.0 mi WNW 21.9 mph 36.8 mph 0.05 in Rain Rain
4:44 AM 35.6 °F 26.2 °F 33.8 °F 93% 29.43 in 6.0 mi WNW 15.0 mph 27.6 mph 0.13 in Rain Light Rain
4:56 AM 36.0 °F 26.0 °F 34.0 °F 93% 29.47 in 10.0 mi NW 17.3 mph 25.3 mph 0.13 in Rain Light Rain
5:22 AM 37.4 °F 27.2 °F 33.8 °F 87% 29.46 in 10.0 mi WNW 19.6 mph 27.6 mph 0.00 in   Mostly Cloudy
5:38 AM 37.4 °F 27.5 °F 33.8 °F 87% 29.48 in 10.0 mi WNW 18.4 mph 27.6 mph 0.00 in   Scattered Clouds
5:56 AM 37.0 °F 26.7 °F 33.1 °F 86% 29.55 in 10.0 mi WNW 19.6 mph 31.1 mph 0.01 in   Partly Cloudy
6:09 AM 37.4 °F 28.2 °F 33.8 °F 87% 29.53 in 10.0 mi WNW 16.1 mph 25.3 mph N/A   Mostly Cloudy
6:56 AM 36.0 °F 24.2 °F 28.9 °F 76% 29.68 in 10.0 mi WNW 24.2 mph 34.5 mph N/A   Overcast
7:28 AM 35.6 °F 24.8 °F 26.6 °F 70% 29.69 in 10.0 mi WNW 19.6 mph 33.4 mph N/A   Overcast
7:56 AM 35.1 °F 25.9 °F 27.0 °F 72% 29.78 in 10.0 mi WNW 13.8 mph 21.9 mph N/A   Overcast
8:56 AM 36.0 °F 24.7 °F 26.1 °F 67% 29.84 in 10.0 mi West 21.9 mph 29.9 mph N/A   Partly Cloudy
9:56 AM 37.9 °F 30.0 °F 25.0 °F 60% 29.92 in 10.0 mi WNW 12.7 mph 32.2 mph N/A   Clear
10:56 AM 39.9 °F 30.8 °F 25.0 °F 55% 29.95 in 10.0 mi WNW 18.4 mph 25.3 mph N/A   Clear
11:56 AM 42.1 °F 32.3 °F 25.0 °F 51% 29.97 in 10.0 mi WNW 24.2 mph 29.9 mph N/A   Clear
12:16 PM 42.8 °F 35.4 °F 26.6 °F 53% 29.93 in 10.0 mi West 15.0 mph 20.7 mph N/A   Scattered Clouds
12:56 PM 43.0 °F 36.4 °F 25.0 °F 49% 29.99 in 10.0 mi West 12.7 mph 23.0 mph N/A   Mostly Cloudy
1:56 PM 42.1 °F 33.6 °F 25.0 °F 51% 30.00 in 10.0 mi West 18.4 mph 28.8 mph N/A   Partly Cloudy
2:56 PM 42.1 °F 35.2 °F 26.1 °F 53% 30.07 in 10.0 mi West 12.7 mph 20.7 mph N/A   Partly Cloudy
3:56 PM 41.0 °F 35.2 °F 24.8 °F 53% 30.08 in 10.0 mi West 9.2 mph - N/A   Mostly Cloudy
4:56 PM 37.9 °F 30.9 °F 24.1 °F 57% 30.15 in 10.0 mi West 10.4 mph - N/A   Scattered Clouds
5:56 PM 36.0 °F 32.1 °F 24.1 °F 62% 30.21 in 10.0 mi WSW 4.6 mph - N/A   Clear
6:56 PM 35.6 °F 30.7 °F 24.8 °F 65% 30.20 in 10.0 mi SW 5.8 mph - N/A   Clear
7:56 PM 35.6 °F 28.6 °F 26.6 °F 70% 30.23 in 10.0 mi SW 9.2 mph - N/A   Clear
8:56 PM 35.1 °F 28.6 °F 26.1 °F 70% 30.28 in 10.0 mi SW 8.1 mph - N/A   Clear
9:56 PM 34.0 °F 29.8 °F 26.1 °F 73% 30.30 in 10.0 mi WSW 4.6 mph - N/A   Clear
10:56 PM 33.1 °F 27.7 °F 25.0 °F 72% 30.31 in 10.0 mi SW 5.8 mph - N/A   Clear
11:56 PM 34.0 °F 28.0 °F 25.0 °F 70% 30.32 in 10.0 mi WSW 6.9 mph - N/A   Clear